Weather in Krasnaya Polyana

Russia / Lipetsk Oblast     52°06′41″N   38°39′57″E
temp.,
°C
wind,
m/s
gust,
m/s
humid.,
%
clouds,
%
prec.,
mm/h
press.,
hPa
HPBL,
m
9 may, sun
sun900:00+10ssw3696100 0.6 1005273
03:00+5w71194100 2.2 1008549
06:00+4wnw6996100 0.2 1008599
09:00+4wnw71196100 0.3 1010714
12:00+6nw81285100 0.1 10131060
15:00+8nw8117491 0.3 10151365
18:00+7nnw8127990 0.3 10171194
21:00+5nw5128210 0.3 1020583
10 may, mon
mon1000:00+4nw5138661 0.0 1020407
03:00+4nw614885 0.0 1021417
06:00+5nnw71679100 0.0 1022594
09:00+9n9166099 0.0 10221470
12:00+11n10145498 0.0 10211503
15:00+10n91563100 0.0 10201167
18:00+7nne91885100 1.1 1020823
21:00+9nne91987100 2.5 1019653
11 may, tue
tue1100:00+8nne91790100 0.2 1018527
03:00+9nne91892100 0.2 1018528
06:00+9nne81694100 0.2 1018509
09:00+13ne81487100 0.3 1018963
12:00+9e61190100 1.3 1021834
15:00+11e7116898 1.3 10231320
18:00+12ese712725 0.0 10231267
21:00+8se4108495 0.1 1025376
12 may, wed
wed1200:00+6ene359098 0.0 102691
03:00+6ene3792100 0.0 1025145
06:00+7ne498796 0.0 1024244
09:00+11ne5876100 0.0 1022464
12:00+9ene6894100 2.8 1021549
15:00+9ne358852 4.3 1020355
18:00+11e498230 0.2 1019537
21:00+9e4892100 0.3 1019136
13 may, thu
thu1300:00+10ese51394100 0.1 1018376
03:00+10ese389587 0.1 1019226
06:00+10se369179 0.0 1019166
09:00+15sse35725 0.0 1018430
12:00+19sse45592 0.0 10181206
15:00+20sse34529 0.0 10181586
18:00+20se236171 0.0 1018218
21:00+15ese2373100 0.0 101821